Вернуться в каталог

METEOR 1-17 DEB

АктивенPO
NORAD 57957·DEBRIS·🇷🇺 Russia

Запущен Apr 24, 1974 с Plesetsk Cosmodrome

Loading…

Ближайшие Пролёты (ближайшие 24 часа)

TLE

СвежийSource: Space-Track

Эпоха: Sep 14, 2026, 13:27 UTC

1 57957U 74025N   26257.56091929  .00001972  00000-0  90680-3 0  9999
2 57957  81.2103 197.3884 0014674  65.0613 295.2086 14.20796955156432

Отслеживайте METEOR 1-17 DEB в реальном времени с AllMySat

Download on the App Store